Tiempo cada hora Abadia

Hoy, 29 Octubre, Jueves

Tiempo Temperatura Precipitaciones Viento Presión Humedad
00:00 +10°C° 0 mm 0 mps 727 mmHg 87%
01:00 +10°C° 0 mm 0 mps 727 mmHg 87%
02:00 +10°C° 0 mm 0 mps 727 mmHg 87%
03:00 +10°C° 0 mm 0 mps 727 mmHg 87%
04:00 +10°C° 0 mm 0 mps 727 mmHg 87%
05:00 +10°C° 0 mm 1 mps 727 mmHg 88%
06:00 +10°C° 0 mm 1 mps 727 mmHg 88%
07:00 +12°C° 0 mm 1 mps 728 mmHg 84%
08:00 +13°C° 0 mm 1 mps 728 mmHg 81%
09:00 +15°C° 0 mm 1 mps 729 mmHg 77%
10:00 +16°C° 0 mm 1 mps 729 mmHg 72%
11:00 +18°C° 0 mm 2 mps 729 mmHg 67%
12:00 +19°C° 0 mm 2 mps 729 mmHg 61%
13:00 +19°C° 0 mm 2 mps 728 mmHg 60%
14:00 +21°C° 0 mm 1 mps 728 mmHg 59%
15:00 +21°C° 0 mm 1 mps 727 mmHg 58%
16:00 +19°C° 0 mm 1 mps 727 mmHg 66%
17:00 +16°C° 0 mm 1 mps 727 mmHg 73%
18:00 +14°C° 0 mm 1 mps 727 mmHg 81%
19:00 +14°C° 0 mm 1 mps 727 mmHg 79%
20:00 +13°C° 0 mm 1 mps 727 mmHg 77%
21:00 +13°C° 0 mm 1 mps 728 mmHg 75%
22:00 +13°C° 0 mm 1 mps 728 mmHg 74%
23:00 +12°C° 0 mm 1 mps 728 mmHg 74%

Mañana, 30 Octubre, Viernes

Tiempo Temperatura Precipitaciones Viento Presión Humedad
00:00 +12°C° 0 mm 1 mps 727 mmHg 73%
01:00 +12°C° 0 mm 1 mps 727 mmHg 73%
02:00 +12°C° 0 mm 1 mps 727 mmHg 73%
03:00 +12°C° 0 mm 1 mps 727 mmHg 73%
04:00 +12°C° 0 mm 1 mps 727 mmHg 72%
05:00 +12°C° 0 mm 1 mps 727 mmHg 70%
06:00 +12°C° 0 mm 1 mps 727 mmHg 69%
07:00 +13°C° 0 mm 1 mps 727 mmHg 65%
08:00 +15°C° 0 mm 1 mps 728 mmHg 61%
09:00 +16°C° 0 mm 1 mps 728 mmHg 58%
10:00 +19°C° 0 mm 1 mps 728 mmHg 54%
11:00 +21°C° 0 mm 1 mps 728 mmHg 50%
12:00 +21°C° 0 mm 2 mps 728 mmHg 46%
13:00 +23°C° 0 mm 2 mps 727 mmHg 47%
14:00 +23°C° 0 mm 2 mps 727 mmHg 48%
15:00 +23°C° 0 mm 2 mps 726 mmHg 49%
16:00 +21°C° 0 mm 1 mps 726 mmHg 56%
17:00 +19°C° 0 mm 1 mps 726 mmHg 62%
18:00 +15°C° 0 mm 0 mps 726 mmHg 69%
19:00 +14°C° 0 mm 0 mps 726 mmHg 68%
20:00 +15°C° 0 mm 1 mps 726 mmHg 68%
21:00 +15°C° 0 mm 1 mps 727 mmHg 67%
22:00 +15°C° 0 mm 1 mps 727 mmHg 68%
23:00 +14°C° 0 mm 1 mps 726 mmHg 68%

Pasado mañana, 31 Octubre, Sábado

Tiempo Temperatura Precipitaciones Viento Presión Humedad
00:00 +14°C° 0 mm 1 mps 726 mmHg 69%
01:00 +14°C° 0 mm 1 mps 726 mmHg 69%
02:00 +13°C° 0 mm 0 mps 726 mmHg 69%
03:00 +12°C° 0 mm 0 mps 726 mmHg 68%
04:00 +12°C° 0 mm 0 mps 726 mmHg 68%
05:00 +12°C° 0 mm 0 mps 726 mmHg 67%
06:00 +12°C° 0 mm 0 mps 726 mmHg 66%
07:00 +14°C° 0 mm 0 mps 727 mmHg 63%
08:00 +15°C° 0 mm 0 mps 727 mmHg 61%
09:00 +17°C° 0 mm 0 mps 727 mmHg 58%
10:00 +18°C° 0 mm 0 mps 727 mmHg 55%
11:00 +22°C° 0 mm 1 mps 727 mmHg 51%
12:00 +23°C° 0 mm 1 mps 727 mmHg 48%
13:00 +23°C° 0 mm 1 mps 727 mmHg 48%
14:00 +23°C° 0 mm 1 mps 727 mmHg 49%
15:00 +23°C° 0 mm 2 mps 726 mmHg 50%
16:00 +21°C° 0 mm 1 mps 726 mmHg 58%
17:00 +19°C° 0 mm 1 mps 726 mmHg 65%
18:00 +15°C° 0 mm 0 mps 726 mmHg 73%
19:00 +16°C° 0 mm 1 mps 726 mmHg 72%
20:00 +15°C° 0 mm 1 mps 727 mmHg 71%
21:00 +15°C° 0 mm 1 mps 727 mmHg 70%
22:00 +14°C° 0 mm 0 mps 727 mmHg 71%
23:00 +14°C° 0 mm 0 mps 727 mmHg 71%

1 Noviembre, Domingo

Tiempo Temperatura Precipitaciones Viento Presión Humedad
00:00 +14°C° 0 mm 0 mps 726 mmHg 71%
01:00 +13°C° 0 mm 0 mps 726 mmHg 72%
02:00 +13°C° 0 mm 0 mps 726 mmHg 73%
03:00 +13°C° 0 mm 0 mps 726 mmHg 74%
04:00 +13°C° 0 mm 0 mps 726 mmHg 75%
05:00 +13°C° 0 mm 0 mps 726 mmHg 75%
06:00 +13°C° 0 mm 0 mps 726 mmHg 75%
07:00 +14°C° 0 mm 0 mps 726 mmHg 73%
08:00 +15°C° 0 mm 0 mps 727 mmHg 70%
09:00 +16°C° 0 mm 0 mps 727 mmHg 68%
10:00 +19°C° 0 mm 1 mps 727 mmHg 65%
11:00 +21°C° 0 mm 1 mps 727 mmHg 62%
12:00 +22°C° 0 mm 1 mps 727 mmHg 60%
13:00 +21°C° 0 mm 1 mps 726 mmHg 62%
14:00 +21°C° 0 mm 1 mps 726 mmHg 64%
15:00 +21°C° 0 mm 1 mps 726 mmHg 66%
16:00 +20°C° 0 mm 1 mps 726 mmHg 70%
17:00 +19°C° 0 mm 1 mps 725 mmHg 74%
18:00 +15°C° 0 mm 0 mps 725 mmHg 78%
19:00 +15°C° 0 mm 0 mps 725 mmHg 79%
20:00 +15°C° 0 mm 0 mps 725 mmHg 80%
21:00 +14°C° 0 mm 0 mps 725 mmHg 81%
22:00 +14°C° 0 mm 0 mps 725 mmHg 81%
23:00 +14°C° 0 mm 0 mps 725 mmHg 82%

2 Noviembre, Lunes

Tiempo Temperatura Precipitaciones Viento Presión Humedad
00:00 +14°C° 0 mm 0 mps 725 mmHg 83%
01:00 +14°C° 0 mm 0 mps 725 mmHg 84%
02:00 +13°C° 0 mm 0 mps 724 mmHg 86%
03:00 +13°C° 0 mm 0 mps 724 mmHg 87%
04:00 +13°C° 0 mm 0 mps 724 mmHg 88%
05:00 +13°C° 0 mm 0 mps 724 mmHg 88%
06:00 +13°C° 0 mm 0 mps 724 mmHg 88%
07:00 +14°C° 0 mm 0 mps 724 mmHg 84%
08:00 +16°C° 0 mm 1 mps 725 mmHg 80%
09:00 +19°C° 0 mm 1 mps 725 mmHg 76%
10:00 +20°C° 0 mm 1 mps 725 mmHg 72%
11:00 +20°C° 0 mm 2 mps 724 mmHg 69%
12:00 +21°C° 0 mm 2 mps 724 mmHg 65%
13:00 +21°C° 0 mm 2 mps 724 mmHg 66%
14:00 +21°C° 0 mm 2 mps 723 mmHg 67%
15:00 +21°C° 0 mm 2 mps 723 mmHg 68%
16:00 +20°C° 0 mm 2 mps 723 mmHg 74%
17:00 +19°C° 0 mm 1 mps 723 mmHg 80%
18:00 +18°C° 0 mm 1 mps 723 mmHg 86%
19:00 +18°C° 0.4 mm 1 mps 723 mmHg 88%
20:00 +18°C° 0.4 mm 1 mps 723 mmHg 90%
21:00 +16°C° 0.4 mm 0 mps 723 mmHg 92%
22:00 +18°C° 0.8 mm 1 mps 724 mmHg 93%
23:00 +16°C° 0.8 mm 1 mps 724 mmHg 94%

3 Noviembre, Martes

Tiempo Temperatura Precipitaciones Viento Presión Humedad
00:00 +16°C° 0.8 mm 1 mps 724 mmHg 95%
01:00 +15°C° 0.3 mm 2 mps 724 mmHg 92%
02:00 +13°C° 0.3 mm 2 mps 724 mmHg 90%
03:00 +11°C° 0.3 mm 3 mps 724 mmHg 87%
04:00 +10°C° 0 mm 3 mps 724 mmHg 87%
05:00 +9°C° 0 mm 3 mps 724 mmHg 86%
06:00 +8°C° 0 mm 3 mps 724 mmHg 85%
07:00 +9°C° 0 mm 3 mps 725 mmHg 82%
08:00 +10°C° 0 mm 3 mps 725 mmHg 80%
09:00 +11°C° 0 mm 4 mps 725 mmHg 77%
10:00 +12°C° 0 mm 4 mps 725 mmHg 72%
11:00 +14°C° 0 mm 4 mps 725 mmHg 67%
12:00 +15°C° 0 mm 4 mps 725 mmHg 62%
13:00 +15°C° 0 mm 4 mps 725 mmHg 61%
14:00 +15°C° 0 mm 4 mps 725 mmHg 61%
15:00 +15°C° 0 mm 4 mps 724 mmHg 60%
16:00 +14°C° 0 mm 4 mps 724 mmHg 63%
17:00 +13°C° 0 mm 4 mps 724 mmHg 66%
18:00 +11°C° 0 mm 4 mps 724 mmHg 69%
19:00 +10°C° 0 mm 5 mps 725 mmHg 69%
20:00 +10°C° 0 mm 5 mps 725 mmHg 69%
21:00 +10°C° 0 mm 6 mps 725 mmHg 69%
22:00 +9°C° 0 mm 5 mps 725 mmHg 69%
23:00 +9°C° 0 mm 5 mps 725 mmHg 70%
Mostrar más

Necesitamos Su Consentimiento

Meteoprog y nuestros Proveedores de Servicios pueden almacenar y acceder a sus datos personales como cookies, identificadores de dispositivo u otras tecnologías similares de su dispositivo y procesar dichos datos para personalizar contenido y anuncios, además de ofrecer funciones de redes sociales y analizar el tráfico.

  • Almacenar y/o acceder a información en su dispositivo

    Se puede almacenar o acceder a cookies, identificadores de dispositivo u otra información de su dispositivo para los fines anteriormente indicados.

  • Anuncios y contenido personalizados, medición de anuncios y contenido, percepciones del público, y desarrollo de productos

    Los anuncios y el contenido pueden personalizarse en base a su perfil. Se pueden añadir más datos para personalizar mejor los anuncios y contenidos. Se puede medir el rendimiento de los anuncios y contenidos. Se puede obtener la percepción sobre el público que ha visto los anuncios y contenidos. Dichos datos pueden usarse para desarrollar o mejorar la experiencia del usuario, sistemas y software.

Al hacer clic en ‘Estoy De Acuerdo’ usted permitirá el uso de las cookies, identificadores de dispositivo, balizas web u otras tecnologías similares indicadas. Su configuración puede cambiarse desde el navegador de su dispositivo.

Para ciertos fines, los intereses legítimos pueden ser considerados por encima del consentimiento. Puede leer más sobre ello en nuestra Política de Privacidad y Cookies.